Lid_Strength_Index
1 0 0 -0 -0 -0 -0 0 1 1 2 2 3 3 1 0 0 1 1 3 4 4 4 4 4 4 4 5 5 3 2 3 4 4 5 6 7 7 9 8 7 8 7 6 6 6 6
1 1 1 1 1 0 0 1 1 1 1 2 3 3 3 2 1 1 2 3 4 4 4 5 5 6 4 7 2 3 3 4 3 4 5 6 6 7 8 8 8 7 7 7 6 6 6
1 1 1 1 1 1 1 1 1 2 2 2 2 2 3 3 2 1 2 4 5 5 5 5 6 5 5 6 2 1 3 4 3 3 5 4 5 7 7 8 7 7 9 8 7 7 7
1 1 1 1 2 2 2 2 2 1 2 2 1 2 2 3 2 2 3 5 5 5 5 5 5 5 7 2 1 2 2 3 2 3 4 4 5 6 7 6 7 8 8 10 7 7 7
1 1 1 1 2 2 2 2 2 2 2 2 2 2 3 3 3 3 5 6 6 5 6 6 6 5 7 3 4 3 3 4 5 5 4 5 6 7 6 8 8 8 10 9 8 7 8
1 1 1 1 2 2 2 2 3 3 3 3 2 3 3 3 5 6 6 6 6 6 6 6 6 7 5 5 3 5 4 5 6 6 7 7 7 8 7 8 11 10 9 8 9 7 8
1 1 1 1 2 2 2 2 2 3 3 3 3 3 4 6 7 7 8 7 7 7 7 6 6 6 5 5 5 5 4 5 6 7 9 7 9 10 7 7 7 8 9 9 8 6 9
1 0 1 1 1 2 2 2 3 4 4 4 5 6 6 6 6 6 7 6 6 6 9 6 6 5 4 4 7 6 5 7 7 9 7 8 10 7 6 6 8 8 9 9 7 7 7
2 2 2 2 2 2 2 3 4 4 5 5 5 5 6 6 6 8 8 7 5 5 9 7 5 6 5 5 6 6 5 6 7 8 8 9 7 6 7 7 8 9 9 9 9 7 7
3 3 3 2 2 3 3 4 4 4 4 5 5 5 6 6 8 5 5 5 4 4 10 9 8 7 6 6 8 5 4 5 7 9 7 8 6 7 8 9 8 10 7 8 8 9 12
3 2 3 4 4 3 3 4 4 4 4 4 5 5 6 6 7 6 5 4 4 6 18 8 9 6 7 8 8 8 4 5 8 8 8 9 8 9 9 9 7 9 7 8 8 9 10
2 2 2 2 2 3 3 3 4 4 4 4 5 5 6 7 7 6 5 4 5 13 18 10 10 10 10 9 8 8 8 6 6 8 7 8 6 7 8 7 7 7 8 9 9 10 14
2 2 2 3 2 2 2 2 3 3 3 4 4 5 5 4 6 5 4 6 13 17 9 10 11 10 10 10 10 10 10 9 10 12 11 9 8 7 7 9 8 9 10 14 15 15 16
2 3 2 2 2 2 2 2 2 3 3 2 3 4 4 4 4 4 5 10 17 11 10 9 9 9 11 9 10 10 10 10 8 9 10 11 13 8 7 9 10 10 10 14 18 17 14
3 3 3 3 2 3 3 3 3 2 2 2 3 4 4 4 3 3 8 15 13 11 8 9 10 11 10 9 10 10 10 10 8 8 12 11 12 9 8 7 8 10 11 9 12 12 15
3 3 4 4 4 3 3 3 3 3 3 2 5 6 6 3 3 5 10 13 10 8 9 10 12 10 12 10 10 10 10 9 9 9 8 9 13 9 9 9 8 8 9 12 12 19 19
3 3 4 4 4 4 4 3 4 3 3 4 6 9 7 4 4 8 13 12 9 8 9 10 10 11 11 9 10 10 10 9 9 9 7 8 10 10 10 10 10 10 11 11 10 13 17
3 3 3 4 4 5 5 4 3 4 4 5 8 12 5 4 11 12 11 9 7 7 7 9 9 9 10 10 11 11 10 9 8 7 9 7 9 12 11 8 8 8 9 9 14 14 12
2 3 3 4 3 4 4 3 2 1 1 3 9 11 4 5 12 11 8 9 7 7 7 8 8 7 7 9 11 9 9 8 8 8 9 8 11 14 12 10 8 9 9 9 10 11 14
2 2 2 3 3 3 4 4 4 3 3 2 7 11 8 8 10 10 11 11 11 6 7 6 7 7 8 9 8 10 9 8 7 7 7 7 11 14 16 15 13 15 13 11 12 16 15
3 2 2 2 2 3 3 3 3 3 3 3 6 9 7 11 10 10 10 11 11 11 7 7 9 8 9 11 10 10 8 8 7 6 7 7 12 10 10 11 11 12 11 11 13 12 16
2 2 2 2 2 2 2 3 3 3 2 3 9 9 6 7 8 10 11 11 12 10 10 10 10 8 8 10 9 10 8 8 9 7 8 7 12 10 11 9 9 11 10 10 11 10 11
1 1 2 2 2 2 2 2 2 2 2 4 3 4 6 9 9 11 11 10 10 9 9 9 9 10 9 8 7 6 6 6 7 8 9 9 11 12 14 10 10 13 11 10 10 9 9
1 1 1 1 1 2 2 2 2 2 2 3 3 4 7 10 9 10 10 10 10 10 10 8 8 9 7 5 5 5 6 6 6 7 6 9 10 11 14 11 18 10 7 7 9 8 7
1 1 1 1 1 1 1 1 1 1 1 1 2 4 6 10 9 10 10 10 9 9 9 8 7 6 4 6 10 11 10 10 9 7 7 6 9 13 16 14 11 9 8 8 9 9 6
0 0 0 0 0 0 0 0 0 0 0 0 1 1 3 7 9 8 9 9 10 10 10 10 7 6 6 9 11 14 15 12 12 10 7 7 7 12 14 16 17 10 7 6 6 12 6
-0 -0 -0 -0 -1 -1 -1 -0 -0 -0 -0 -1 0 -1 2 6 5 5 7 7 6 7 9 8 8 8 6 10 12 14 13 9 14 13 12 11 11 14 14 15 11 7 6 5 12 10 6
-0 -0 -0 -0 -0 -1 -0 -1 -1 -0 -0 -0 0 -1 2 5 4 3 3 5 5 6 8 6 7 7 9 12 12 12 12 10 12 10 10 12 13 14 13 15 16 5 6 9 7 5 5
-0 -0 -0 -0 -0 -1 -1 -1 -1 -1 -1 -1 2 -1 -1 3 3 1 1 1 2 2 4 4 6 6 6 10 10 10 13 11 11 14 7 14 10 12 11 11 6 5 5 4 4 5 4